Weather in Yermilovka

Russia / Omsk Oblast     57°38′10″N   72°54′48″E
temp.,
°C
wind,
m/s
gust,
m/s
humid.,
%
clouds,
%
prec.,
mm/h
press.,
hPa
HPBL,
m
17 may, mon
mon1700:00+14nne22815 0.0 101614
03:00+12s119236 0.0 101511
06:00+13se2390100 0.3 101675
09:00+20ssw37605 0.1 1013492
12:00+27wsw4739100 0.1 1011995
15:00+30wnw61125100 0.0 10103805
18:00+29wnw3102981 0.0 10072595
21:00+19wnw81768100 0.7 10111435
18 may, tue
tue1800:00+14w3118818 0.7 1008428
03:00+14wnw411925 0.0 1009471
06:00+13nw279443 0.0 1009310
09:00+18nw236765 0.0 1009726
12:00+19nnw236647 1.5 1008898
15:00+13nne61193100 6.8 1010626
18:00+13nne598399 7.8 1012962
21:00+10nne4118847 0.2 1015791
19 may, wed
wed1900:00+10nne498648 0.2 1016628
03:00+7n3108730 0.0 1018280
06:00+6nne38837 0.0 1019267
09:00+11nne34480 0.0 1020906
12:00+14n45375 0.0 10201897
15:00+15nnw573388 0.0 10202320
18:00+14nnw5840100 0.0 10202163
21:00+10n495179 0.0 1021623
20 may, thu
thu2000:00+6nne3105496 0.0 1023460
03:00+4nne256259 0.0 1023135
06:00+4ne125975 0.0 102488
09:00+8w1238100 0.0 1024770
12:00+5sse2485100 1.6 1022386
15:00+5sse4991100 1.4 1019415
18:00+8sse4883100 1.6 1017549
21:00+6sse499689 1.4 1017374
21 may, fri
fri2100:00+6sse2597100 1.4 1017219
03:00+5sse239939 0.0 101780
06:00+6sse249898 0.0 1018114
09:00+11s23859 0.0 1018265
12:00+20sw35615 0.0 1017682
15:00+27w48435 0.0 10151890
18:00+27wnw49395 0.0 10131998
21:00+20wnw376821 0.0 1014103